EN

Hourly Weather Am See

Today, 22 January, Friday

Time Temperature Precipitation Wind Pressure Humidity
00:00 +3°C° 0.1 mm 3 mps 691 mmHg 84%
01:00 +3°C° 0.1 mm 3 mps 691 mmHg 85%
02:00 +3°C° 0.7 mm 3 mps 690 mmHg 87%
03:00 +2°C° 0.7 mm 3 mps 690 mmHg 88%
04:00 +3°C° 0.7 mm 2 mps 689 mmHg 90%
05:00 +3°C° 0.1 mm 2 mps 689 mmHg 88%
06:00 +2°C° 0.1 mm 3 mps 689 mmHg 86%
07:00 +2°C° 0.1 mm 3 mps 689 mmHg 85%
08:00 +3°C° 0.1 mm 3 mps 688 mmHg 85%
09:00 +3°C° 0.1 mm 3 mps 688 mmHg 85%
10:00 +4°C° 0.1 mm 3 mps 688 mmHg 85%
11:00 +5°C° 0 mm 2 mps 687 mmHg 87%
12:00 +6°C° 0 mm 2 mps 686 mmHg 89%
13:00 +7°C° 0 mm 2 mps 686 mmHg 91%
14:00 +7°C° 0.1 mm 2 mps 685 mmHg 91%
15:00 +6°C° 0.1 mm 2 mps 685 mmHg 92%
16:00 +6°C° 0.1 mm 2 mps 684 mmHg 92%
17:00 +6°C° 0.3 mm 1 mps 684 mmHg 92%
18:00 +5°C° 0.3 mm 1 mps 683 mmHg 92%
19:00 +5°C° 0.3 mm 1 mps 683 mmHg 93%
20:00 +4°C° 1.1 mm 1 mps 683 mmHg 94%
21:00 +4°C° 1.1 mm 1 mps 684 mmHg 96%
22:00 +4°C° 1.1 mm 1 mps 684 mmHg 98%
23:00 +3°C° 1.7 mm 2 mps 684 mmHg 97%

Tomorrow, 23 January, Saturday

Time Temperature Precipitation Wind Pressure Humidity
00:00 +2°C° 1.7 mm 3 mps 685 mmHg 97%
01:00 +1°C° 1.7 mm 4 mps 685 mmHg 97%
02:00 +1°C° 1.2 mm 3 mps 686 mmHg 97%
03:00 0°C° 1.2 mm 3 mps 686 mmHg 96%
04:00 -1°C° 1.2 mm 2 mps 687 mmHg 96%
05:00 -1°C° 0.1 mm 2 mps 687 mmHg 95%
06:00 -2°C° 0.1 mm 2 mps 687 mmHg 93%
07:00 -1°C° 0.1 mm 1 mps 687 mmHg 92%
08:00 0°C° 0 mm 1 mps 687 mmHg 89%
09:00 +1°C° 0 mm 1 mps 687 mmHg 86%
10:00 +1°C° 0 mm 1 mps 687 mmHg 84%
11:00 +2°C° 0 mm 1 mps 687 mmHg 83%
12:00 +2°C° 0 mm 1 mps 687 mmHg 83%
13:00 +3°C° 0 mm 1 mps 686 mmHg 82%
14:00 +3°C° 0 mm 1 mps 686 mmHg 85%
15:00 +3°C° 0 mm 1 mps 685 mmHg 87%
16:00 +2°C° 0 mm 1 mps 685 mmHg 90%
17:00 +1°C° 0 mm 1 mps 685 mmHg 86%
18:00 -1°C° 0 mm 1 mps 685 mmHg 82%
19:00 -2°C° 0 mm 1 mps 685 mmHg 78%
20:00 -2°C° 0 mm 1 mps 685 mmHg 77%
21:00 -2°C° 0 mm 1 mps 686 mmHg 77%
22:00 -2°C° 0 mm 1 mps 686 mmHg 76%
23:00 -3°C° 0.4 mm 2 mps 686 mmHg 81%

Day after tomorrow, 24 January, Sunday

Time Temperature Precipitation Wind Pressure Humidity
00:00 -3°C° 0.4 mm 2 mps 687 mmHg 87%
01:00 -3°C° 0.4 mm 2 mps 687 mmHg 92%
02:00 -3°C° 0.4 mm 2 mps 687 mmHg 93%
03:00 -3°C° 0.4 mm 2 mps 687 mmHg 94%
04:00 -1°C° 0.4 mm 1 mps 688 mmHg 95%
05:00 -2°C° 0.3 mm 1 mps 688 mmHg 95%
06:00 -2°C° 0.3 mm 1 mps 689 mmHg 95%
07:00 -3°C° 0.3 mm 1 mps 689 mmHg 94%
08:00 -2°C° 0 mm 1 mps 689 mmHg 93%
09:00 -2°C° 0 mm 1 mps 690 mmHg 92%
10:00 -1°C° 0 mm 1 mps 690 mmHg 90%
11:00 0°C° 0 mm 1 mps 690 mmHg 84%
12:00 +1°C° 0 mm 1 mps 690 mmHg 78%
13:00 +2°C° 0 mm 1 mps 689 mmHg 72%
14:00 +2°C° 0 mm 1 mps 689 mmHg 76%
15:00 +1°C° 0 mm 1 mps 689 mmHg 81%
16:00 +1°C° 0 mm 1 mps 688 mmHg 86%
17:00 0°C° 0 mm 1 mps 689 mmHg 84%
18:00 0°C° 0 mm 1 mps 689 mmHg 83%
19:00 -1°C° 0 mm 1 mps 689 mmHg 82%
20:00 -1°C° 0.2 mm 1 mps 689 mmHg 85%
21:00 -1°C° 0.2 mm 1 mps 689 mmHg 88%
22:00 -2°C° 0.2 mm 1 mps 689 mmHg 92%
23:00 -2°C° 0.7 mm 1 mps 689 mmHg 93%

25 January, Monday

Time Temperature Precipitation Wind Pressure Humidity
00:00 -1°C° 0.7 mm 1 mps 690 mmHg 94%
01:00 -1°C° 0.7 mm 1 mps 690 mmHg 96%
02:00 -3°C° 1 mm 2 mps 691 mmHg 95%
03:00 -3°C° 1 mm 2 mps 691 mmHg 95%
04:00 -5°C° 1 mm 3 mps 692 mmHg 95%
05:00 -4°C° 0.5 mm 2 mps 692 mmHg 95%
06:00 -5°C° 0.5 mm 2 mps 693 mmHg 95%
07:00 -5°C° 0.5 mm 2 mps 694 mmHg 95%
08:00 -5°C° 0.4 mm 2 mps 694 mmHg 94%
09:00 -5°C° 0.4 mm 3 mps 695 mmHg 94%
10:00 -5°C° 0.4 mm 3 mps 696 mmHg 94%
11:00 -4°C° 0.2 mm 3 mps 696 mmHg 90%
12:00 -4°C° 0.2 mm 3 mps 697 mmHg 85%
13:00 -2°C° 0.2 mm 3 mps 697 mmHg 81%
14:00 -2°C° 0.1 mm 3 mps 697 mmHg 83%
15:00 -2°C° 0.1 mm 3 mps 697 mmHg 85%
16:00 -3°C° 0.1 mm 2 mps 697 mmHg 87%
17:00 -3°C° 0.3 mm 2 mps 698 mmHg 89%
18:00 -4°C° 0.3 mm 2 mps 698 mmHg 91%
19:00 -4°C° 0.3 mm 2 mps 699 mmHg 93%
20:00 -4°C° 0.2 mm 2 mps 699 mmHg 93%
21:00 -4°C° 0.2 mm 2 mps 700 mmHg 92%
22:00 -4°C° 0.2 mm 2 mps 700 mmHg 92%
23:00 -4°C° 0.1 mm 2 mps 700 mmHg 91%

26 January, Tuesday

Time Temperature Precipitation Wind Pressure Humidity
00:00 -5°C° 0.1 mm 2 mps 701 mmHg 91%
01:00 -5°C° 0.1 mm 2 mps 701 mmHg 90%
02:00 -5°C° 0.1 mm 2 mps 701 mmHg 90%
03:00 -5°C° 0.1 mm 2 mps 701 mmHg 90%
04:00 -5°C° 0.1 mm 2 mps 701 mmHg 89%
05:00 -5°C° 0.1 mm 2 mps 701 mmHg 90%
06:00 -5°C° 0.1 mm 2 mps 701 mmHg 91%
07:00 -3°C° 0.1 mm 1 mps 701 mmHg 92%
08:00 -2°C° 0.1 mm 1 mps 702 mmHg 92%
09:00 -1°C° 0.1 mm 1 mps 702 mmHg 91%
10:00 -1°C° 0.1 mm 1 mps 702 mmHg 91%
11:00 0°C° 0 mm 1 mps 702 mmHg 89%
12:00 +1°C° 0 mm 1 mps 702 mmHg 87%
13:00 +1°C° 0 mm 2 mps 702 mmHg 86%
14:00 +2°C° 0 mm 1 mps 702 mmHg 87%
15:00 +2°C° 0 mm 1 mps 701 mmHg 88%
16:00 +2°C° 0 mm 1 mps 701 mmHg 89%
17:00 +1°C° 0.1 mm 1 mps 701 mmHg 86%
18:00 +1°C° 0.1 mm 1 mps 701 mmHg 84%
19:00 +1°C° 0.1 mm 1 mps 701 mmHg 81%
20:00 -1°C° 0.3 mm 2 mps 701 mmHg 85%
21:00 -1°C° 0.3 mm 2 mps 701 mmHg 89%
22:00 -1°C° 0.3 mm 2 mps 702 mmHg 93%
23:00 -1°C° 0.4 mm 2 mps 701 mmHg 93%

27 January, Wednesday

Time Temperature Precipitation Wind Pressure Humidity
00:00 +1°C° 0.4 mm 2 mps 701 mmHg 93%
01:00 +1°C° 0.4 mm 2 mps 701 mmHg 93%
02:00 +2°C° 0.4 mm 2 mps 701 mmHg 94%
03:00 +3°C° 0.4 mm 2 mps 700 mmHg 95%
04:00 +3°C° 0.4 mm 3 mps 700 mmHg 96%
05:00 +3°C° 0.8 mm 3 mps 700 mmHg 97%
06:00 +3°C° 0.8 mm 3 mps 700 mmHg 97%
07:00 +3°C° 0.8 mm 4 mps 700 mmHg 98%
08:00 +3°C° 1.1 mm 4 mps 701 mmHg 98%
09:00 +3°C° 1.1 mm 4 mps 701 mmHg 98%
10:00 +3°C° 1.1 mm 4 mps 702 mmHg 98%
11:00 +3°C° 0.5 mm 3 mps 702 mmHg 96%
12:00 +3°C° 0.5 mm 3 mps 702 mmHg 95%
13:00 +3°C° 0.5 mm 3 mps 702 mmHg 93%
14:00 +4°C° 0.1 mm 2 mps 702 mmHg 93%
15:00 +4°C° 0.1 mm 2 mps 703 mmHg 94%
16:00 +4°C° 0.1 mm 2 mps 703 mmHg 94%
17:00 +3°C° 0 mm 2 mps 703 mmHg 90%
18:00 +2°C° 0 mm 2 mps 704 mmHg 85%
19:00 +1°C° 0 mm 2 mps 704 mmHg 81%
20:00 +1°C° 0 mm 2 mps 704 mmHg 76%
21:00 +1°C° 0 mm 2 mps 704 mmHg 72%
22:00 +1°C° 0 mm 2 mps 704 mmHg 67%
23:00 +1°C° 0 mm 2 mps 704 mmHg 68%
Show more